{"data":{"norad_id":62293,"intl_designator":"2024-238D","name":"GJZ 04","alt_names":[],"object_type":"PAYLOAD","status":"ACTIVE","operator":null,"country":"PRC","launch_date":"2024-12-12","launch_site_code":"JSC","launch_vehicle":null,"mission":null,"orbit_class":"UNKNOWN","rcs_meters":null,"size_class":null,"mass_kg":null,"dimensions":null,"purposes":[],"wikipedia_slug":null,"has_3d_model":false,"image_url":null,"decayed_at":null,"tle_current":{"epoch":"2026-09-22T22:03:03.824064Z","epoch_age_seconds":103461,"freshness":"FRESH","line1":"1 62293U 24238D   26265.91879426 -.00000047  00000+0  75149-4 0  9999","line2":"2 62293  59.9155 335.2402 0021093  70.4176 289.9107 13.75208977 89357","mean_motion":13.75208977,"eccentricity":0.0021093,"inclination_deg":59.9155,"raan_deg":335.2402,"arg_perigee_deg":70.4176,"mean_anomaly_deg":289.9107,"bstar":7.5149e-5,"rev_number":8935,"period_min":104.71135835234,"perigee_km":965.40670749199,"apogee_km":996.4516641034,"semimajor_km":7359.0661857977,"source":"CELESTRAK","updated_at":"2026-09-23T09:00:21.346859Z"}}}